Regional Weather Roundup
Issued by NWS Kansas City/Pleasant Hill, MO

Home | Current Version | Previous Version | Text Only | Print | Product List | Glossary On
Versions: 1 2 3 4 5 6 7 8 9 10 11 12 13 14 15 16 17 18 19 20 21 22 23 24 25 26 27
000
ASUS43 KEAX 251210
RWREAX

WEATHER ROUNDUP FOR EASTERN KANSAS AND NORTHWEST MISSOURI
NATIONAL WEATHER SERVICE KANSAS CITY/PLEASANT HILL MO
700 AM CDT MON JUL 25 2016

KSZ040-057-103>105-MOZ028-029-037-043-251300-
...KANSAS CITY METROPOLITAN AREA...

CITY           SKY/WX    TMP DP  RH WIND       PRES   REMARKS
K.C. INTL      CLOUDY    73  67  81 NE10      30.06S
6HR MIN TEMP:  73; 6HR MAX TEMP:  78;

K.C. DOWNTOWN  CLOUDY    75  67  76 NE9       30.04S
6HR MIN TEMP:  75; 6HR MAX TEMP:  82; 6HR PCP:  0.28;

LEES SUMMIT    CLOUDY    74  70  87 NE7       30.05S
6HR MIN TEMP:  72; 6HR MAX TEMP:  77; 6HR PCP:  0.67;

OLATHE - IXD   CLOUDY    74  69  85 NE7       30.05R
6HR MIN TEMP:  74; 6HR MAX TEMP:  78; 6HR PCP:  0.02;

OLATHE - OJC   CLOUDY    73  69  87 NE8       30.04F
6HR MIN TEMP:  73; 6HR MAX TEMP:  79; 6HR PCP:  0.04;

LAWRENCE       CLOUDY    74  67  78 NE8       30.04F

$$

MOZ001>008-011>017-020>025-030>033-038>040-044>046-053-054-251300-
...NORTHERN AND CENTRAL MISSOURI...

CITY           SKY/WX    TMP DP  RH WIND       PRES   REMARKS
ST. JOSEPH     CLOUDY    71  65  81 CALM      30.08R
6HR MIN TEMP:  69; 6HR MAX TEMP:  71;

MOSBY          CLOUDY    72  68  88 CALM      30.06S
WHITEMAN AFB   MOCLDY    72  72 100 E5        30.02F
6HR MIN TEMP:  70; 6HR MAX TEMP:  72; 6HR PCP: TRACE;

CLINTON        LGT RAIN  72  72 100 CALM      30.05R
SEDALIA        LGT RAIN  73  71  93 CALM      30.06S
6HR MIN TEMP:  73; 6HR MAX TEMP:  74; 6HR PCP:  0.55;

WARSAW         NOT AVBL
CHILLICOTHE      N/A     73  68  84 VRB5      30.07S
6HR MIN TEMP:  72; 6HR MAX TEMP:  77;

KIRKSVILLE     MOCLDY    71  66  84 N6        30.07R
6HR MIN TEMP:  70; 6HR MAX TEMP:  76;


$$

MOZ041-047>049-056>058-063>065-088>090-097-251300-
...EASTERN AND SOUTHERN MISSOURI...

CITY           SKY/WX    TMP DP  RH WIND       PRES   REMARKS
ST. LOUIS INTL CLOUDY    75  71  87 W7        29.97F
6HR MIN TEMP:  74; 6HR MAX TEMP:  79; 6HR PCP:  1.21;

SPIRIT OF STL  CLOUDY    73  72  96 SW6       29.96F FOG
COLUMBIA       CLOUDY    73  71  93 VRB3      30.01S
JEFFERSON CITY CLOUDY    73  71  93 CALM      30.00F
ROLLA          CLOUDY    71  70  96 NW8       30.03R
OSAGE BEACH    CLOUDY    73  71  93 VRB6      30.08R
SPRINGFIELD    CLOUDY    79  71  76 VRB6      30.02R THUNDER
BRANSON        MOCLDY    75  68  78 SW3       30.02S
JOPLIN         CLOUDY    77  71  82 N9        30.03R
WEST PLAINS    CLOUDY    76  73  91 NE3       30.04S FOG

$$

IAZ060-094-KSZ022-034>040-054-083-096-NEZ052-066-093-251300-
...KANSAS...SOUTHEAST NEBRASKA AND IOWA...

CITY           SKY/WX    TMP DP  RH WIND       PRES   REMARKS
TOPEKA         LGT RAIN  72  69  90 NW6       30.05S
6HR MIN TEMP:  72; 6HR MAX TEMP:  78; 6HR PCP:  0.02;

MANHATTAN      RAIN      70  68  93 NW7       30.09R FOG
EMPORIA        TSTM      70  69  97 N9        30.05R
CHANUTE        TSTM      72  70  93 N13G23    30.03R VSB 1
WICHITA        LGT RAIN  74  70  87 N20       30.05R
OMAHA          CLOUDY    66  62  87 N7        30.10R
LINCOLN        CLOUDY    67  65  93 CALM      30.12R
FALLS CITY     CLOUDY    68  66  93 CALM      30.08R
LAMONI         CLOUDY    64  63  96 N6        30.09R
DES MOINES     MOCLDY    72  64  76 N6        30.08R

$$





USA.gov is the U.S. government's official web portal to all federal, state and local government web resources and services.